Miscellaneous Local Product
Issued by NWS Hastings, NE

Home | Current Version | Previous Version | Text Only | Print | Product List | Glossary On
Versions: 1 2 3 4 5 6 7 8 9 10 11 12 13 14 15 16 17 18 19 20 21 22 23 24 25 26 27 28 29 30 31 32 33 34 35 36 37 38 39 40 41 42 43 44 45 46 47 48 49 50
000
AXUS43 KGID 191010
MISGRI

GID CWA HOURLY WEATHER ROUNDUP
NATIONAL WEATHER SERVICE HASTINGS NE
500 AM CDT FRI SEP 19 2014

NOTE: "FAIR" INDICATES FEW OR NO CLOUDS BELOW 12,000 FEET WITH NO
SIGNIFICANT WEATHER AND/OR OBSTRUCTIONS TO VISIBILITY.

...SOUTH CENTRAL NEBRASKA...

CITY           SKY/WX    TMP DP  RH WIND       PRES   REMARKS
GRAND ISLAND   CLEAR     66  62  87 S14G22    29.88F
HASTINGS       CLEAR     64  59  83 S12       29.89F
KEARNEY        CLEAR     63  61  94 S14       29.88F
ORD            CLOUDY    66  63  90 S10       29.84S
YORK           PTCLDY    64  63  94 S12       29.90F
AURORA         PTCLDY    64  64  97 S13G18    29.89S
LEXINGTON      CLEAR     64  62  92 S9        29.87R
HOLDREGE       CLEAR     62  59  91 S7        29.88F
HEBRON         CLEAR     64  61  89 S8        29.93S

...NEBRASKA PANHANDLE...

CITY           SKY/WX    TMP DP  RH WIND       PRES   REMARKS
CHADRON        MOCLDY    68  55  63 NE9       29.80R
ALLIANCE       PTCLDY    52  51  97 SE12      29.81F
SCOTTSBLUFF    PTCLDY    64  48  56 N6        29.82F
SIDNEY         CLEAR     63  51  65 SW14      29.89S

...WESTERN AND NORTH CENTRAL NEBRASKA...

CITY           SKY/WX    TMP DP  RH WIND       PRES   REMARKS
VALENTINE      PTCLDY    62  61  96 SW9       29.76S
AINSWORTH      PTCLDY    63  62  97 S17       29.78S
ONEILL         CLOUDY    68  65  90 S14G22    29.81F
BROKEN BOW     CLEAR     64  62  93 S10       29.84F
IMPERIAL       CLEAR     55  52  89 S5        29.87S
NORTH PLATTE   FOG       55  54  96 SE5       29.85S VSB 1/4
MCCOOK         CLEAR     55  54  96 E5        29.88S FOG

...EASTERN NEBRASKA...

CITY           SKY/WX    TMP DP  RH WIND       PRES   REMARKS
NORFOLK        CLOUDY    64  62  93 S15G23    29.87F FOG
SO SIOUX CITY  CLOUDY    61  59  93 S8        29.89F
TEKAMAH        CLOUDY    64  60  87 S13       29.92F
ALBION         CLOUDY    64  62  93 S10       29.87F
OMAHA EPPLEY   CLOUDY    63  59  87 S15       29.95F
OFFUTT AFB     CLOUDY    62  62 100 SE13      29.95F
MILLARD        CLOUDY    63  60  91 SE9       29.94F FOG
LINCOLN        CLOUDY    64  61  90 S12       29.95S
NEBRASKA CITY  CLOUDY    61  60  97 S9        29.97F FOG
BEATRICE       MOCLDY    63  62  96 S9        29.94F
FALLS CITY     CLOUDY    61  61 100 SE7       29.97F FOG

...NORTHERN KANSAS...

CITY           SKY/WX    TMP DP  RH WIND       PRES   REMARKS
GOODLAND       CLEAR     63  58  83 SW12      29.93S
HILL CITY      CLEAR     63  60  90 S5        29.90S
NORTON         SUNNY     63  57  82 SE7       29.88
PHILLIPSBURG   CLEAR     63  61  94 SE6       29.90S
SMITH CENTER   CLEAR     61  59  94 SE13      29.91S
BELOIT         CLEAR     64  63  94 SE8       29.91F
HAYS           CLEAR     64  57  77 S12       29.93R
RUSSELL        CLEAR     64  61  90 S13       29.91S
CONCORDIA      CLEAR     64  63  96 S12       29.93F
SALINA         CLEAR     65  62  90 SE6       29.94F
TOPEKA         CLOUDY    63  62  97 E5        29.99S



USA.gov is the U.S. government's official web portal to all federal, state and local government web resources and services.